contact:dominique.lefevre@mio.osupytheas.fr, maurice.libes@osupytheas.fr, didier.mallarino@osupytheas.fr
Project:EMSO http://www.emso-fr.org/EMSO-France
Depth: 2436.0 m
Title:EMSO Ligure Ouest : Data MII capteur MICROCAT
DateTime_Computer,Latitude,Longitude,Temperature,Conductivity,Pressure,DateTime_Instrument
DateTime_Computer,Latitude,Longitude,degC,S m-1,dbar,DateTime_Instrument
2023-11-26T00:01:07Z,42.805,6.029,13.3038,4.60123,2470.567,2023-11-26T02:03:35Z
2023-11-26T00:04:10Z,42.805,6.029,13.3036,4.60117,2470.553,2023-11-26T02:06:38Z
2023-11-26T00:07:13Z,42.805,6.029,13.3047,4.60122,2470.553,2023-11-26T02:09:41Z
2023-11-26T00:10:16Z,42.805,6.029,13.3042,4.60125,2470.577,2023-11-26T02:12:44Z
2023-11-26T00:13:19Z,42.805,6.029,13.3039,4.60124,2470.6,2023-11-26T02:15:48Z
2023-11-26T00:16:23Z,42.805,6.029,13.3048,4.60125,2470.567,2023-11-26T02:18:51Z
2023-11-26T00:19:26Z,42.805,6.029,13.3038,4.60120,2470.567,2023-11-26T02:21:54Z
2023-11-26T00:22:29Z,42.805,6.029,13.3036,4.60122,2470.577,2023-11-26T02:24:57Z
2023-11-26T00:25:32Z,42.805,6.029,13.3034,4.60125,2470.567,2023-11-26T02:28:00Z
2023-11-26T00:28:35Z,42.805,6.029,13.3036,4.60113,2470.591,2023-11-26T02:31:03Z
2023-11-26T00:31:38Z,42.805,6.029,13.3037,4.60122,2470.591,2023-11-26T02:34:06Z
2023-11-26T00:34:41Z,42.805,6.029,13.3046,4.60128,2470.577,2023-11-26T02:37:09Z
2023-11-26T00:37:44Z,42.805,6.029,13.3036,4.60127,2470.567,2023-11-26T02:40:12Z
2023-11-26T00:40:47Z,42.805,6.029,13.3039,4.60121,2470.637,2023-11-26T02:43:15Z
2023-11-26T00:43:50Z,42.805,6.029,13.3040,4.60134,2470.567,2023-11-26T02:46:18Z
2023-11-26T00:46:53Z,42.805,6.029,13.3046,4.60140,2470.591,2023-11-26T02:49:21Z
2023-11-26T00:49:56Z,42.805,6.029,13.3035,4.60116,2470.6,2023-11-26T02:52:25Z
2023-11-26T00:53:00Z,42.805,6.029,13.3035,4.60123,2470.577,2023-11-26T02:55:28Z
2023-11-26T00:56:03Z,42.805,6.029,13.3039,4.60126,2470.577,2023-11-26T02:58:31Z
2023-11-26T00:59:06Z,42.805,6.029,13.3036,4.60126,2470.591,2023-11-26T03:01:34Z
2023-11-26T01:02:09Z,42.805,6.029,13.3036,4.60116,2470.6,2023-11-26T03:04:37Z
2023-11-26T01:05:12Z,42.805,6.029,13.3039,4.60119,2470.6,2023-11-26T03:07:40Z
2023-11-26T01:08:15Z,42.805,6.029,13.3037,4.60125,2470.577,2023-11-26T03:10:43Z
2023-11-26T01:11:18Z,42.805,6.029,13.3038,4.60128,2470.591,2023-11-26T03:13:46Z
2023-11-26T01:14:21Z,42.805,6.029,13.3043,4.60141,2470.6,2023-11-26T03:16:49Z
2023-11-26T01:17:24Z,42.805,6.029,13.3046,4.60125,2470.577,2023-11-26T03:19:52Z
2023-11-26T01:20:27Z,42.805,6.029,13.3040,4.60120,2470.6,2023-11-26T03:22:55Z
2023-11-26T01:23:30Z,42.805,6.029,13.3036,4.60120,2470.6,2023-11-26T03:25:58Z
2023-11-26T01:26:33Z,42.805,6.029,13.3036,4.60122,2470.6,2023-11-26T03:29:02Z
2023-11-26T01:29:37Z,42.805,6.029,13.3035,4.60128,2470.614,2023-11-26T03:32:05Z
2023-11-26T01:32:40Z,42.805,6.029,13.3043,4.60143,2470.577,2023-11-26T03:35:08Z
2023-11-26T01:35:43Z,42.805,6.029,13.3040,4.60153,2470.614,2023-11-26T03:38:11Z
2023-11-26T01:38:46Z,42.805,6.029,13.3046,4.60125,2470.6,2023-11-26T03:41:14Z
2023-11-26T01:41:49Z,42.805,6.029,13.3046,4.60142,2470.614,2023-11-26T03:44:17Z
2023-11-26T01:44:52Z,42.805,6.029,13.3039,4.60152,2470.6,2023-11-26T03:47:20Z
2023-11-26T01:47:55Z,42.805,6.029,13.3040,4.60152,2470.624,2023-11-26T03:50:23Z
2023-11-26T01:50:58Z,42.805,6.029,13.3047,4.60137,2470.637,2023-11-26T03:53:26Z
2023-11-26T01:54:01Z,42.805,6.029,13.3037,4.60125,2470.624,2023-11-26T03:56:29Z
2023-11-26T01:57:04Z,42.805,6.029,13.3053,4.60148,2470.624,2023-11-26T03:59:32Z
2023-11-26T02:00:07Z,42.805,6.029,13.3041,4.60127,2470.624,2023-11-26T04:02:35Z
2023-11-26T02:03:10Z,42.805,6.029,13.3046,4.60150,2470.624,2023-11-26T04:05:39Z
2023-11-26T02:06:13Z,42.805,6.029,13.3046,4.60135,2470.614,2023-11-26T04:08:42Z
2023-11-26T02:09:17Z,42.805,6.029,13.3049,4.60133,2470.646,2023-11-26T04:11:45Z
2023-11-26T02:12:20Z,42.805,6.029,13.3041,4.60156,2470.624,2023-11-26T04:14:48Z
2023-11-26T02:15:23Z,42.805,6.029,13.3039,4.60131,2470.624,2023-11-26T04:17:51Z
2023-11-26T02:18:26Z,42.805,6.029,13.3042,4.60124,2470.646,2023-11-26T04:20:54Z
2023-11-26T02:21:29Z,42.805,6.029,13.3047,4.60135,2470.661,2023-11-26T04:23:57Z
2023-11-26T02:24:32Z,42.805,6.029,13.3036,4.60125,2470.646,2023-11-26T04:27:00Z
2023-11-26T02:27:35Z,42.805,6.029,13.3037,4.60128,2470.624,2023-11-26T04:30:03Z
2023-11-26T02:30:38Z,42.805,6.029,13.3048,4.60150,2470.67,2023-11-26T04:33:06Z
2023-11-26T02:33:41Z,42.805,6.029,13.3050,4.60142,2470.646,2023-11-26T04:36:09Z
2023-11-26T02:36:44Z,42.805,6.029,13.3039,4.60133,2470.646,2023-11-26T04:39:12Z
2023-11-26T02:39:47Z,42.805,6.029,13.3051,4.60135,2470.646,2023-11-26T04:42:16Z
2023-11-26T02:42:50Z,42.805,6.029,13.3061,4.60161,2470.67,2023-11-26T04:45:19Z
2023-11-26T02:45:54Z,42.805,6.029,13.3038,4.60125,2470.661,2023-11-26T04:48:22Z
2023-11-26T02:48:57Z,42.805,6.029,13.3042,4.60122,2470.684,2023-11-26T04:51:25Z
2023-11-26T02:52:00Z,42.805,6.029,13.3056,4.60146,2470.67,2023-11-26T04:54:28Z
2023-11-26T02:55:03Z,42.805,6.029,13.3041,4.60140,2470.73,2023-11-26T04:57:31Z
2023-11-26T02:58:06Z,42.805,6.029,13.3036,4.60130,2470.67,2023-11-26T05:00:34Z
2023-11-26T03:01:09Z,42.805,6.029,13.3043,4.60139,2470.707,2023-11-26T05:03:37Z
2023-11-26T03:04:12Z,42.805,6.029,13.3039,4.60124,2470.74,2023-11-26T05:06:40Z
2023-11-26T03:07:15Z,42.805,6.029,13.3036,4.60126,2470.693,2023-11-26T05:09:43Z
2023-11-26T03:10:18Z,42.805,6.029,13.3036,4.60127,2470.693,2023-11-26T05:12:46Z
2023-11-26T03:13:21Z,42.805,6.029,13.3042,4.60152,2470.684,2023-11-26T05:15:49Z
2023-11-26T03:16:24Z,42.805,6.029,13.3051,4.60146,2470.693,2023-11-26T05:18:53Z
2023-11-26T03:19:27Z,42.805,6.029,13.3051,4.60156,2470.693,2023-11-26T05:21:56Z
2023-11-26T03:22:31Z,42.805,6.029,13.3036,4.60127,2470.679,2023-11-26T05:24:59Z
2023-11-26T03:25:34Z,42.805,6.029,13.3039,4.60122,2470.754,2023-11-26T05:28:02Z
2023-11-26T03:28:37Z,42.805,6.029,13.3046,4.60132,2470.74,2023-11-26T05:31:05Z
2023-11-26T03:31:40Z,42.805,6.029,13.3049,4.60152,2470.8,2023-11-26T05:34:08Z
2023-11-26T03:34:43Z,42.805,6.029,13.3047,4.60148,2470.717,2023-11-26T05:37:11Z
2023-11-26T03:37:46Z,42.805,6.029,13.3042,4.60137,2470.73,2023-11-26T05:40:14Z
2023-11-26T03:40:49Z,42.805,6.029,13.3041,4.60126,2470.74,2023-11-26T05:43:17Z
2023-11-26T03:43:52Z,42.805,6.029,13.3051,4.60139,2470.717,2023-11-26T05:46:20Z
2023-11-26T03:46:55Z,42.805,6.029,13.3041,4.60125,2470.74,2023-11-26T05:49:23Z
2023-11-26T03:49:58Z,42.805,6.029,13.3048,4.60144,2470.763,2023-11-26T05:52:26Z
2023-11-26T03:53:01Z,42.805,6.029,13.3038,4.60137,2470.754,2023-11-26T05:55:30Z
2023-11-26T03:56:04Z,42.805,6.029,13.3036,4.60122,2470.754,2023-11-26T05:58:33Z
2023-11-26T03:59:08Z,42.805,6.029,13.3041,4.60142,2470.81,2023-11-26T06:01:36Z
2023-11-26T04:02:11Z,42.805,6.029,13.3038,4.60127,2470.763,2023-11-26T06:04:39Z
2023-11-26T04:05:14Z,42.805,6.029,13.3043,4.60161,2470.787,2023-11-26T06:07:42Z
2023-11-26T04:08:17Z,42.805,6.029,13.3040,4.60132,2470.763,2023-11-26T06:10:45Z
2023-11-26T04:11:20Z,42.805,6.029,13.3048,4.60166,2470.787,2023-11-26T06:13:48Z
2023-11-26T04:14:23Z,42.805,6.029,13.3055,4.60166,2470.824,2023-11-26T06:16:51Z
2023-11-26T04:17:26Z,42.805,6.029,13.3054,4.60158,2470.763,2023-11-26T06:19:54Z
2023-11-26T04:20:29Z,42.805,6.029,13.3049,4.60165,2470.8,2023-11-26T06:22:57Z
2023-11-26T04:23:32Z,42.805,6.029,13.3043,4.60147,2470.787,2023-11-26T06:26:00Z
2023-11-26T04:26:35Z,42.805,6.029,13.3043,4.60167,2470.8,2023-11-26T06:29:03Z
2023-11-26T04:29:38Z,42.805,6.029,13.3043,4.60146,2470.8,2023-11-26T06:32:07Z
2023-11-26T04:32:41Z,42.805,6.029,13.3036,4.60132,2470.8,2023-11-26T06:35:10Z
2023-11-26T04:35:45Z,42.805,6.029,13.3040,4.60128,2470.8,2023-11-26T06:38:13Z
2023-11-26T04:38:48Z,42.805,6.029,13.3041,4.60143,2470.81,2023-11-26T06:41:16Z
2023-11-26T04:41:51Z,42.805,6.029,13.3048,4.60141,2470.81,2023-11-26T06:44:19Z
2023-11-26T04:44:54Z,42.805,6.029,13.3042,4.60129,2470.847,2023-11-26T06:47:22Z
2023-11-26T04:47:57Z,42.805,6.029,13.3037,4.60131,2470.857,2023-11-26T06:50:25Z
2023-11-26T04:51:00Z,42.805,6.029,13.3036,4.60122,2470.787,2023-11-26T06:53:28Z
2023-11-26T04:54:03Z,42.805,6.029,13.3052,4.60156,2470.847,2023-11-26T06:56:31Z
2023-11-26T04:57:06Z,42.805,6.029,13.3039,4.60137,2470.857,2023-11-26T06:59:34Z
2023-11-26T05:00:09Z,42.805,6.029,13.3035,4.60132,2470.847,2023-11-26T07:02:37Z
2023-11-26T05:03:12Z,42.805,6.029,13.3044,4.60124,2470.833,2023-11-26T07:05:40Z
2023-11-26T05:06:15Z,42.805,6.029,13.3050,4.60139,2470.847,2023-11-26T07:08:43Z
2023-11-26T05:09:18Z,42.805,6.029,13.3045,4.60142,2470.796,2023-11-26T07:11:47Z
2023-11-26T05:12:22Z,42.805,6.029,13.3045,4.60141,2470.833,2023-11-26T07:14:50Z
2023-11-26T05:15:25Z,42.805,6.029,13.3039,4.60131,2470.833,2023-11-26T07:17:53Z
2023-11-26T05:18:28Z,42.805,6.029,13.3037,4.60123,2470.847,2023-11-26T07:20:56Z
2023-11-26T05:21:31Z,42.805,6.029,13.3047,4.60129,2470.847,2023-11-26T07:23:59Z
2023-11-26T05:24:34Z,42.805,6.029,13.3048,4.60157,2470.833,2023-11-26T07:27:02Z
2023-11-26T05:27:37Z,42.805,6.029,13.3046,4.60152,2470.857,2023-11-26T07:30:05Z
2023-11-26T05:30:39Z,42.805,6.029,13.3039,4.60139,2470.81,2023-11-26T07:33:07Z
2023-11-26T05:33:42Z,42.805,6.029,13.3039,4.60130,2470.857,2023-11-26T07:36:10Z
2023-11-26T05:36:45Z,42.805,6.029,13.3042,4.60163,2470.857,2023-11-26T07:39:13Z
2023-11-26T05:39:48Z,42.805,6.029,13.3043,4.60152,2470.88,2023-11-26T07:42:16Z
2023-11-26T05:42:51Z,42.805,6.029,13.3047,4.60130,2470.833,2023-11-26T07:45:19Z
2023-11-26T05:45:54Z,42.805,6.029,13.3035,4.60140,2470.88,2023-11-26T07:48:22Z
2023-11-26T05:48:57Z,42.805,6.029,13.3054,4.60142,2470.857,2023-11-26T07:51:25Z
2023-11-26T05:52:00Z,42.805,6.029,13.3046,4.60155,2470.871,2023-11-26T07:54:28Z
2023-11-26T05:55:03Z,42.805,6.029,13.3051,4.60145,2470.917,2023-11-26T07:57:31Z
2023-11-26T05:58:06Z,42.805,6.029,13.3038,4.60140,2470.857,2023-11-26T08:00:34Z
2023-11-26T06:01:09Z,42.805,6.029,13.3042,4.60137,2470.88,2023-11-26T08:03:38Z
2023-11-26T06:04:13Z,42.805,6.029,13.3038,4.60124,2470.894,2023-11-26T08:06:41Z
2023-11-26T06:07:16Z,42.805,6.029,13.3039,4.60135,2470.833,2023-11-26T08:09:44Z
2023-11-26T06:10:19Z,42.805,6.029,13.3059,4.60143,2470.894,2023-11-26T08:12:47Z
2023-11-26T06:13:22Z,42.805,6.029,13.3049,4.60167,2470.88,2023-11-26T08:15:50Z
2023-11-26T06:16:25Z,42.805,6.029,13.3046,4.60155,2470.871,2023-11-26T08:18:53Z
2023-11-26T06:19:28Z,42.805,6.029,13.3056,4.60141,2470.857,2023-11-26T08:21:56Z
2023-11-26T06:22:31Z,42.805,6.029,13.3042,4.60140,2470.894,2023-11-26T08:24:59Z
2023-11-26T06:25:34Z,42.805,6.029,13.3036,4.60128,2470.88,2023-11-26T08:28:02Z
2023-11-26T06:28:37Z,42.805,6.029,13.3039,4.60142,2470.871,2023-11-26T08:31:05Z
2023-11-26T06:31:40Z,42.805,6.029,13.3040,4.60125,2470.857,2023-11-26T08:34:08Z
2023-11-26T06:34:43Z,42.805,6.029,13.3037,4.60113,2470.904,2023-11-26T08:37:11Z
2023-11-26T06:37:46Z,42.805,6.029,13.3039,4.60124,2470.904,2023-11-26T08:40:15Z
2023-11-26T06:40:49Z,42.805,6.029,13.3046,4.60127,2470.857,2023-11-26T08:43:18Z
2023-11-26T06:43:53Z,42.805,6.029,13.3046,4.60141,2470.857,2023-11-26T08:46:21Z
2023-11-26T06:46:56Z,42.805,6.029,13.3038,4.60137,2470.894,2023-11-26T08:49:24Z
2023-11-26T06:49:59Z,42.805,6.029,13.3043,4.60128,2470.88,2023-11-26T08:52:27Z
2023-11-26T06:53:02Z,42.805,6.029,13.3044,4.60130,2470.894,2023-11-26T08:55:30Z
2023-11-26T06:56:05Z,42.805,6.029,13.3039,4.60122,2470.866,2023-11-26T08:58:33Z
2023-11-26T06:59:08Z,42.805,6.029,13.3036,4.60119,2470.88,2023-11-26T09:01:36Z
2023-11-26T07:02:11Z,42.805,6.029,13.3039,4.60126,2470.88,2023-11-26T09:04:39Z
2023-11-26T07:05:14Z,42.805,6.029,13.3037,4.60134,2470.88,2023-11-26T09:07:42Z
2023-11-26T07:08:17Z,42.805,6.029,13.3034,4.60117,2470.904,2023-11-26T09:10:45Z
2023-11-26T07:11:20Z,42.805,6.029,13.3037,4.60116,2470.894,2023-11-26T09:13:48Z
2023-11-26T07:14:23Z,42.805,6.029,13.3040,4.60117,2470.88,2023-11-26T09:16:52Z
2023-11-26T07:17:27Z,42.805,6.029,13.3042,4.60130,2470.894,2023-11-26T09:19:55Z
2023-11-26T07:20:30Z,42.805,6.029,13.3040,4.60122,2470.833,2023-11-26T09:22:58Z
2023-11-26T07:23:33Z,42.805,6.029,13.3034,4.60117,2470.857,2023-11-26T09:26:01Z
2023-11-26T07:26:36Z,42.805,6.029,13.3038,4.60121,2470.88,2023-11-26T09:29:04Z
2023-11-26T07:29:39Z,42.805,6.029,13.3039,4.60129,2470.904,2023-11-26T09:32:07Z
2023-11-26T07:32:42Z,42.805,6.029,13.3041,4.60126,2470.857,2023-11-26T09:35:10Z
2023-11-26T07:35:45Z,42.805,6.029,13.3036,4.60120,2470.871,2023-11-26T09:38:13Z
2023-11-26T07:38:48Z,42.805,6.029,13.3039,4.60116,2470.88,2023-11-26T09:41:16Z
2023-11-26T07:41:51Z,42.805,6.029,13.3046,4.60121,2470.88,2023-11-26T09:44:19Z
2023-11-26T07:44:54Z,42.805,6.029,13.3045,4.60125,2470.88,2023-11-26T09:47:22Z
2023-11-26T07:47:57Z,42.805,6.029,13.3045,4.60132,2470.857,2023-11-26T09:50:26Z
2023-11-26T07:51:01Z,42.805,6.029,13.3041,4.60125,2470.857,2023-11-26T09:53:29Z
2023-11-26T07:54:04Z,42.805,6.029,13.3043,4.60132,2470.904,2023-11-26T09:56:32Z
2023-11-26T07:57:07Z,42.805,6.029,13.3036,4.60115,2470.88,2023-11-26T09:59:35Z
2023-11-26T08:00:10Z,42.805,6.029,13.3039,4.60119,2470.88,2023-11-26T10:02:38Z
2023-11-26T08:03:13Z,42.805,6.029,13.3036,4.60114,2470.904,2023-11-26T10:05:41Z
2023-11-26T08:06:16Z,42.805,6.029,13.3036,4.60116,2470.857,2023-11-26T10:08:44Z
2023-11-26T08:09:19Z,42.805,6.029,13.3034,4.60126,2470.871,2023-11-26T10:11:47Z
2023-11-26T08:12:22Z,42.805,6.029,13.3037,4.60117,2470.847,2023-11-26T10:14:50Z
2023-11-26T08:15:25Z,42.805,6.029,13.3038,4.60122,2470.871,2023-11-26T10:17:53Z
2023-11-26T08:18:28Z,42.805,6.029,13.3039,4.60135,2470.88,2023-11-26T10:20:56Z
2023-11-26T08:21:31Z,42.805,6.029,13.3039,4.60121,2470.871,2023-11-26T10:24:00Z
2023-11-26T08:24:34Z,42.805,6.029,13.3040,4.60121,2470.833,2023-11-26T10:27:03Z
2023-11-26T08:27:38Z,42.805,6.029,13.3038,4.60117,2470.857,2023-11-26T10:30:06Z
2023-11-26T08:30:41Z,42.805,6.029,13.3040,4.60125,2470.833,2023-11-26T10:33:09Z
2023-11-26T08:33:44Z,42.805,6.029,13.3043,4.60125,2470.833,2023-11-26T10:36:12Z
2023-11-26T08:36:47Z,42.805,6.029,13.3042,4.60134,2470.857,2023-11-26T10:39:15Z
2023-11-26T08:39:50Z,42.805,6.029,13.3041,4.60133,2470.88,2023-11-26T10:42:18Z
2023-11-26T08:42:53Z,42.805,6.029,13.3037,4.60114,2470.857,2023-11-26T10:45:21Z
2023-11-26T08:45:56Z,42.805,6.029,13.3037,4.60121,2470.857,2023-11-26T10:48:24Z
2023-11-26T08:48:59Z,42.805,6.029,13.3039,4.60129,2470.857,2023-11-26T10:51:27Z
2023-11-26T08:52:02Z,42.805,6.029,13.3036,4.60124,2470.857,2023-11-26T10:54:30Z
2023-11-26T08:55:05Z,42.805,6.029,13.3044,4.60121,2470.857,2023-11-26T10:57:34Z
2023-11-26T08:58:08Z,42.805,6.029,13.3041,4.60127,2470.857,2023-11-26T11:00:37Z
2023-11-26T09:01:12Z,42.805,6.029,13.3036,4.60136,2470.857,2023-11-26T11:03:40Z
2023-11-26T09:04:15Z,42.805,6.029,13.3033,4.60121,2470.857,2023-11-26T11:06:43Z
2023-11-26T09:07:18Z,42.805,6.029,13.3043,4.60130,2470.857,2023-11-26T11:09:46Z
2023-11-26T09:10:21Z,42.805,6.029,13.3048,4.60138,2470.833,2023-11-26T11:12:49Z
2023-11-26T09:13:24Z,42.805,6.029,13.3036,4.60131,2470.857,2023-11-26T11:15:52Z
2023-11-26T09:16:27Z,42.805,6.029,13.3045,4.60131,2470.833,2023-11-26T11:18:55Z
2023-11-26T09:19:30Z,42.805,6.029,13.3042,4.60132,2470.833,2023-11-26T11:21:58Z
2023-11-26T09:22:33Z,42.805,6.029,13.3036,4.60126,2470.847,2023-11-26T11:25:01Z
2023-11-26T09:25:36Z,42.805,6.029,13.3046,4.60129,2470.81,2023-11-26T11:28:04Z
2023-11-26T09:28:39Z,42.805,6.029,13.3038,4.60127,2470.833,2023-11-26T11:31:07Z
2023-11-26T09:31:41Z,42.805,6.029,13.3043,4.60125,2470.857,2023-11-26T11:34:09Z
2023-11-26T09:34:44Z,42.805,6.029,13.3053,4.60145,2470.81,2023-11-26T11:37:12Z
2023-11-26T09:37:47Z,42.805,6.029,13.3046,4.60122,2470.833,2023-11-26T11:40:15Z
2023-11-26T09:40:50Z,42.805,6.029,13.3043,4.60133,2470.833,2023-11-26T11:43:19Z
2023-11-26T09:43:54Z,42.805,6.029,13.3035,4.60122,2470.81,2023-11-26T11:46:22Z
2023-11-26T09:46:57Z,42.805,6.029,13.3039,4.60127,2470.81,2023-11-26T11:49:25Z
2023-11-26T09:50:00Z,42.805,6.029,13.3039,4.60127,2470.833,2023-11-26T11:52:28Z
2023-11-26T09:53:03Z,42.805,6.029,13.3039,4.60127,2470.824,2023-11-26T11:55:31Z
2023-11-26T09:56:06Z,42.805,6.029,13.3039,4.60126,2470.81,2023-11-26T11:58:34Z
2023-11-26T09:59:09Z,42.805,6.029,13.3040,4.60126,2470.787,2023-11-26T12:01:37Z
2023-11-26T10:02:12Z,42.805,6.029,13.3046,4.60139,2470.833,2023-11-26T12:04:40Z
2023-11-26T10:05:15Z,42.805,6.029,13.3041,4.60133,2470.81,2023-11-26T12:07:43Z
2023-11-26T10:08:18Z,42.805,6.029,13.3041,4.60123,2470.787,2023-11-26T12:10:46Z
2023-11-26T10:11:21Z,42.805,6.029,13.3036,4.60127,2470.824,2023-11-26T12:13:49Z
2023-11-26T10:14:24Z,42.805,6.029,13.3041,4.60137,2470.8,2023-11-26T12:16:53Z
2023-11-26T10:17:27Z,42.805,6.029,13.3052,4.60138,2470.81,2023-11-26T12:19:56Z
2023-11-26T10:20:31Z,42.805,6.029,13.3048,4.60151,2470.787,2023-11-26T12:22:59Z
2023-11-26T10:23:34Z,42.805,6.029,13.3041,4.60143,2470.81,2023-11-26T12:26:02Z
2023-11-26T10:26:37Z,42.805,6.029,13.3041,4.60132,2470.8,2023-11-26T12:29:05Z
2023-11-26T10:29:40Z,42.805,6.029,13.3039,4.60131,2470.824,2023-11-26T12:32:08Z
2023-11-26T10:32:43Z,42.805,6.029,13.3038,4.60137,2470.824,2023-11-26T12:35:11Z
2023-11-26T10:35:46Z,42.805,6.029,13.3038,4.60144,2470.833,2023-11-26T12:38:14Z
2023-11-26T10:38:49Z,42.805,6.029,13.3040,4.60126,2470.81,2023-11-26T12:41:17Z
2023-11-26T10:41:52Z,42.805,6.029,13.3048,4.60135,2470.824,2023-11-26T12:44:20Z
2023-11-26T10:44:55Z,42.805,6.029,13.3045,4.60127,2470.787,2023-11-26T12:47:23Z
2023-11-26T10:47:58Z,42.805,6.029,13.3041,4.60140,2470.824,2023-11-26T12:50:27Z
2023-11-26T10:51:01Z,42.805,6.029,13.3045,4.60149,2470.754,2023-11-26T12:53:30Z
2023-11-26T10:54:05Z,42.805,6.029,13.3042,4.60126,2470.8,2023-11-26T12:56:33Z
2023-11-26T10:57:08Z,42.805,6.029,13.3036,4.60122,2470.8,2023-11-26T12:59:36Z
2023-11-26T11:00:11Z,42.805,6.029,13.3041,4.60131,2470.787,2023-11-26T13:02:39Z
2023-11-26T11:03:14Z,42.805,6.029,13.3039,4.60122,2470.81,2023-11-26T13:05:42Z
2023-11-26T11:06:17Z,42.805,6.029,13.3043,4.60125,2470.824,2023-11-26T13:08:45Z
2023-11-26T11:09:20Z,42.805,6.029,13.3046,4.60137,2470.763,2023-11-26T13:11:48Z
2023-11-26T11:12:23Z,42.805,6.029,13.3036,4.60125,2470.824,2023-11-26T13:14:51Z
2023-11-26T11:15:26Z,42.805,6.029,13.3045,4.60135,2470.787,2023-11-26T13:17:54Z
2023-11-26T11:18:29Z,42.805,6.029,13.3058,4.60140,2470.754,2023-11-26T13:20:57Z
2023-11-26T11:21:32Z,42.805,6.029,13.3043,4.60138,2470.8,2023-11-26T13:24:01Z
2023-11-26T11:24:35Z,42.805,6.029,13.3042,4.60133,2470.777,2023-11-26T13:27:04Z
2023-11-26T11:27:39Z,42.805,6.029,13.3040,4.60125,2470.763,2023-11-26T13:30:07Z
2023-11-26T11:30:42Z,42.805,6.029,13.3039,4.60142,2470.787,2023-11-26T13:33:10Z
2023-11-26T11:33:45Z,42.805,6.029,13.3040,4.60141,2470.796,2023-11-26T13:36:13Z
2023-11-26T11:36:48Z,42.805,6.029,13.3039,4.60151,2470.763,2023-11-26T13:39:16Z
2023-11-26T11:39:51Z,42.805,6.029,13.3043,4.60135,2470.717,2023-11-26T13:42:19Z
2023-11-26T11:42:54Z,42.805,6.029,13.3046,4.60131,2470.763,2023-11-26T13:45:22Z
2023-11-26T11:45:57Z,42.805,6.029,13.3041,4.60122,2470.75,2023-11-26T13:48:25Z
2023-11-26T11:49:00Z,42.805,6.029,13.3045,4.60127,2470.74,2023-11-26T13:51:28Z
2023-11-26T11:52:03Z,42.805,6.029,13.3041,4.60127,2470.754,2023-11-26T13:54:31Z
2023-11-26T11:55:06Z,42.805,6.029,13.3040,4.60122,2470.754,2023-11-26T13:57:34Z
2023-11-26T11:58:09Z,42.805,6.029,13.3044,4.60133,2470.777,2023-11-26T14:00:38Z
2023-11-26T12:01:12Z,42.805,6.029,13.3046,4.60140,2470.8,2023-11-26T14:03:41Z
2023-11-26T12:04:16Z,42.805,6.029,13.3045,4.60137,2470.763,2023-11-26T14:06:44Z
2023-11-26T12:07:19Z,42.805,6.029,13.3048,4.60144,2470.763,2023-11-26T14:09:47Z
2023-11-26T12:10:22Z,42.805,6.029,13.3033,4.60131,2470.754,2023-11-26T14:12:50Z
2023-11-26T12:13:25Z,42.805,6.029,13.3044,4.60139,2470.717,2023-11-26T14:15:53Z
2023-11-26T12:16:28Z,42.805,6.029,13.3051,4.60144,2470.74,2023-11-26T14:18:56Z
2023-11-26T12:19:31Z,42.805,6.029,13.3041,4.60138,2470.754,2023-11-26T14:21:59Z
2023-11-26T12:22:34Z,42.805,6.029,13.3041,4.60137,2470.787,2023-11-26T14:25:02Z
2023-11-26T12:25:37Z,42.805,6.029,13.3044,4.60131,2470.717,2023-11-26T14:28:05Z
2023-11-26T12:28:40Z,42.805,6.029,13.3043,4.60144,2470.763,2023-11-26T14:31:08Z
2023-11-26T12:31:43Z,42.805,6.029,13.3041,4.60123,2470.717,2023-11-26T14:34:12Z
2023-11-26T12:34:46Z,42.805,6.029,13.3042,4.60133,2470.73,2023-11-26T14:37:15Z
2023-11-26T12:37:50Z,42.805,6.029,13.3045,4.60141,2470.74,2023-11-26T14:40:18Z
2023-11-26T12:40:53Z,42.805,6.029,13.3058,4.60150,2470.74,2023-11-26T14:43:21Z
2023-11-26T12:43:56Z,42.805,6.029,13.3043,4.60124,2470.74,2023-11-26T14:46:24Z
2023-11-26T12:46:59Z,42.805,6.029,13.3043,4.60140,2470.703,2023-11-26T14:49:27Z
2023-11-26T12:50:02Z,42.805,6.029,13.3043,4.60137,2470.754,2023-11-26T14:52:30Z
2023-11-26T12:53:05Z,42.805,6.029,13.3039,4.60129,2470.74,2023-11-26T14:55:33Z
2023-11-26T12:56:08Z,42.805,6.029,13.3040,4.60139,2470.73,2023-11-26T14:58:36Z
2023-11-26T12:59:11Z,42.805,6.029,13.3046,4.60147,2470.717,2023-11-26T15:01:39Z
2023-11-26T13:02:14Z,42.805,6.029,13.3055,4.60141,2470.717,2023-11-26T15:04:42Z
2023-11-26T13:05:17Z,42.805,6.029,13.3051,4.60149,2470.717,2023-11-26T15:07:45Z
2023-11-26T13:08:20Z,42.805,6.029,13.3044,4.60127,2470.73,2023-11-26T15:10:49Z
2023-11-26T13:11:24Z,42.805,6.029,13.3047,4.60149,2470.717,2023-11-26T15:13:52Z
2023-11-26T13:14:27Z,42.805,6.029,13.3049,4.60129,2470.74,2023-11-26T15:16:55Z
2023-11-26T13:17:30Z,42.805,6.029,13.3039,4.60131,2470.754,2023-11-26T15:19:58Z
2023-11-26T13:20:33Z,42.805,6.029,13.3040,4.60119,2470.763,2023-11-26T15:23:01Z
2023-11-26T13:23:36Z,42.805,6.029,13.3040,4.60135,2470.74,2023-11-26T15:26:04Z
2023-11-26T13:26:39Z,42.805,6.029,13.3043,4.60147,2470.717,2023-11-26T15:29:07Z
2023-11-26T13:29:42Z,42.805,6.029,13.3041,4.60126,2470.717,2023-11-26T15:32:10Z
2023-11-26T13:32:45Z,42.805,6.029,13.3038,4.60137,2470.74,2023-11-26T15:35:13Z
2023-11-26T13:35:48Z,42.805,6.029,13.3041,4.60142,2470.717,2023-11-26T15:38:16Z
2023-11-26T13:38:51Z,42.805,6.029,13.3052,4.60154,2470.693,2023-11-26T15:41:19Z
2023-11-26T13:41:54Z,42.805,6.029,13.3052,4.60150,2470.717,2023-11-26T15:44:23Z
2023-11-26T13:44:58Z,42.805,6.029,13.3046,4.60144,2470.74,2023-11-26T15:47:26Z
2023-11-26T13:48:01Z,42.805,6.029,13.3042,4.60144,2470.717,2023-11-26T15:50:29Z
2023-11-26T13:51:04Z,42.805,6.029,13.3046,4.60152,2470.74,2023-11-26T15:53:32Z
2023-11-26T13:54:07Z,42.805,6.029,13.3050,4.60149,2470.717,2023-11-26T15:56:35Z
2023-11-26T13:57:10Z,42.805,6.029,13.3042,4.60133,2470.707,2023-11-26T15:59:38Z
2023-11-26T14:00:13Z,42.805,6.029,13.3046,4.60137,2470.717,2023-11-26T16:02:41Z
2023-11-26T14:03:16Z,42.805,6.029,13.3035,4.60131,2470.73,2023-11-26T16:05:44Z
2023-11-26T14:06:19Z,42.805,6.029,13.3053,4.60156,2470.754,2023-11-26T16:08:47Z
2023-11-26T14:09:22Z,42.805,6.029,13.3046,4.60152,2470.74,2023-11-26T16:11:50Z
2023-11-26T14:12:25Z,42.805,6.029,13.3046,4.60137,2470.73,2023-11-26T16:14:53Z
2023-11-26T14:15:28Z,42.805,6.029,13.3046,4.60130,2470.73,2023-11-26T16:17:57Z
2023-11-26T14:18:31Z,42.805,6.029,13.3049,4.60137,2470.74,2023-11-26T16:21:00Z
2023-11-26T14:21:35Z,42.805,6.029,13.3045,4.60151,2470.777,2023-11-26T16:24:03Z
2023-11-26T14:24:38Z,42.805,6.029,13.3047,4.60135,2470.74,2023-11-26T16:27:06Z
2023-11-26T14:27:41Z,42.805,6.029,13.3046,4.60147,2470.763,2023-11-26T16:30:09Z
2023-11-26T14:30:44Z,42.805,6.029,13.3046,4.60150,2470.74,2023-11-26T16:33:12Z
2023-11-26T14:33:47Z,42.805,6.029,13.3050,4.60161,2470.754,2023-11-26T16:36:15Z
2023-11-26T14:36:50Z,42.805,6.029,13.3046,4.60167,2470.74,2023-11-26T16:39:18Z
2023-11-26T14:39:53Z,42.805,6.029,13.3054,4.60157,2470.717,2023-11-26T16:42:21Z
2023-11-26T14:42:56Z,42.805,6.029,13.3047,4.60157,2470.717,2023-11-26T16:45:24Z
2023-11-26T14:45:59Z,42.805,6.029,13.3043,4.60132,2470.73,2023-11-26T16:48:27Z
2023-11-26T14:49:02Z,42.805,6.029,13.3048,4.60156,2470.74,2023-11-26T16:51:31Z
2023-11-26T14:52:05Z,42.805,6.029,13.3039,4.60135,2470.763,2023-11-26T16:54:34Z
2023-11-26T14:55:09Z,42.805,6.029,13.3041,4.60135,2470.777,2023-11-26T16:57:37Z
2023-11-26T14:58:12Z,42.805,6.029,13.3051,4.60151,2470.74,2023-11-26T17:00:40Z
2023-11-26T15:01:15Z,42.805,6.029,13.3048,4.60141,2470.763,2023-11-26T17:03:43Z